Time,TemperatureF,DewpointF,PressureIn,WindDirection,WindDirectionDegrees,WindSpeedMPH,WindSpeedGustMPH,Humidity,HourlyPrecipIn,Conditions,Clouds,dailyrainin,SoftwareType,DateUTC
2013-04-01 00:01:00,44.4,42.5,29.60,North,-999,-999.0,-999.0,93,-99.99,,,-99.99,open2300-1.11,2013-04-01 04:01:00,
2013-04-01 00:04:00,44.4,42.5,29.60,North,-999,-999.0,-999.0,93,-99.99,,,-99.99,open2300-1.11,2013-04-01 04:04:00,
2013-04-01 00:06:00,44.4,42.5,29.60,North,-999,-999.0,-999.0,93,-99.99,,,-99.99,open2300-1.11,2013-04-01 04:06:00,
2013-04-01 00:08:00,44.4,42.5,29.60,North,-999,-999.0,-999.0,93,-99.99,,,-99.99,open2300-1.11,2013-04-01 04:08:00,
2013-04-01 00:13:00,44.4,42.5,29.60,North,-999,-999.0,-999.0,93,-99.99,,,-99.99,open2300-1.11,2013-04-01 04:13:00,
2013-04-01 00:19:00,44.4,42.5,29.59,North,-999,-999.0,-999.0,93,-99.99,,,-99.99,open2300-1.11,2013-04-01 04:19:00,
2013-04-01 00:23:00,44.4,42.5,29.59,North,-999,-999.0,-999.0,93,-99.99,,,-99.99,open2300-1.11,2013-04-01 04:23:00,
2013-04-01 00:29:00,44.4,42.5,29.59,North,-999,-999.0,-999.0,93,-99.99,,,-99.99,open2300-1.11,2013-04-01 04:29:00,
2013-04-01 00:34:00,44.4,42.5,29.59,North,-999,-999.0,-999.0,93,-99.99,,,-99.99,open2300-1.11,2013-04-01 04:34:00,
2013-04-01 00:40:00,44.4,42.5,29.59,North,-999,-999.0,-999.0,93,-99.99,,,-99.99,open2300-1.11,2013-04-01 04:40:00,
2013-04-01 00:46:00,44.2,42.3,29.59,North,-999,-999.0,-999.0,93,-99.99,,,-99.99,open2300-1.11,2013-04-01 04:46:00,
2013-04-01 00:52:00,44.2,42.3,29.60,North,-999,-999.0,-999.0,93,-99.99,,,-99.99,open2300-1.11,2013-04-01 04:52:00,
2013-04-01 00:57:00,44.2,42.3,29.60,North,-999,-999.0,-999.0,93,-99.99,,,-99.99,open2300-1.11,2013-04-01 04:57:00,
2013-04-01 01:03:00,44.2,42.3,29.60,North,-999,-999.0,-999.0,93,-99.99,,,-99.99,open2300-1.11,2013-04-01 05:03:00,
2013-04-01 01:08:00,44.1,42.2,29.60,North,-999,-999.0,-999.0,93,-99.99,,,-99.99,open2300-1.11,2013-04-01 05:08:00,
2013-04-01 01:14:00,43.7,41.8,29.59,North,-999,-999.0,-999.0,93,-99.99,,,-99.99,open2300-1.11,2013-04-01 05:14:00,
2013-04-01 01:20:00,43.3,41.5,29.59,North,-999,-999.0,-999.0,93,-99.99,,,-99.99,open2300-1.11,2013-04-01 05:20:00,
2013-04-01 01:25:00,43.0,41.1,29.59,North,-999,-999.0,-999.0,93,-99.99,,,-99.99,open2300-1.11,2013-04-01 05:25:00,
2013-04-01 01:31:00,42.4,40.5,29.59,North,-999,-999.0,-999.0,93,-99.99,,,-99.99,open2300-1.11,2013-04-01 05:31:00,
2013-04-01 01:36:00,42.1,40.2,29.59,North,-999,-999.0,-999.0,93,-99.99,,,-99.99,open2300-1.11,2013-04-01 05:36:00,
2013-04-01 01:44:00,41.5,39.7,29.60,North,-999,-999.0,-999.0,93,-99.99,,,-99.99,open2300-1.11,2013-04-01 05:44:00,
2013-04-01 01:49:00,41.5,39.7,29.60,North,-999,-999.0,-999.0,93,-99.99,,,-99.99,open2300-1.11,2013-04-01 05:49:00,
2013-04-01 01:55:00,41.5,39.7,29.60,North,-999,-999.0,-999.0,93,-99.99,,,-99.99,open2300-1.11,2013-04-01 05:55:00,
2013-04-01 02:01:00,41.7,39.8,29.60,North,-999,-999.0,-999.0,93,-99.99,,,-99.99,open2300-1.11,2013-04-01 06:01:00,
2013-04-01 02:06:00,41.9,40.0,29.60,North,-999,-999.0,-999.0,93,-99.99,,,-99.99,open2300-1.11,2013-04-01 06:06:00,
2013-04-01 02:11:00,42.1,40.2,29.61,North,-999,-999.0,-999.0,93,-99.99,,,-99.99,open2300-1.11,2013-04-01 06:11:00,
2013-04-01 02:17:00,42.1,40.2,29.61,North,-999,-999.0,-999.0,93,-99.99,,,-99.99,open2300-1.11,2013-04-01 06:17:00,
2013-04-01 02:23:00,42.4,40.5,29.61,North,-999,-999.0,-999.0,93,-99.99,,,-99.99,open2300-1.11,2013-04-01 06:23:00,
2013-04-01 02:28:00,42.4,40.5,29.61,North,-999,-999.0,-999.0,93,-99.99,,,-99.99,open2300-1.11,2013-04-01 06:28:00,
2013-04-01 02:35:00,42.4,40.5,29.61,North,-999,-999.0,-999.0,93,-99.99,,,-99.99,open2300-1.11,2013-04-01 06:35:00,
2013-04-01 02:41:00,42.6,40.7,29.61,North,-999,-999.0,-999.0,93,-99.99,,,-99.99,open2300-1.11,2013-04-01 06:41:00,
2013-04-01 02:47:00,42.8,40.9,29.61,North,-999,-999.0,-999.0,93,-99.99,,,-99.99,open2300-1.11,2013-04-01 06:47:00,
2013-04-01 02:53:00,43.0,41.1,29.62,North,-999,-999.0,-999.0,93,-99.99,,,-99.99,open2300-1.11,2013-04-01 06:53:00,
2013-04-01 02:58:00,43.3,41.5,29.62,North,-999,-999.0,-999.0,93,-99.99,,,-99.99,open2300-1.11,2013-04-01 06:58:00,
2013-04-01 03:04:00,43.5,41.9,29.62,North,-999,-999.0,-999.0,94,-99.99,,,-99.99,open2300-1.11,2013-04-01 07:04:00,
2013-04-01 03:10:00,43.5,41.9,29.61,North,-999,-999.0,-999.0,94,-99.99,,,-99.99,open2300-1.11,2013-04-01 07:10:00,
2013-04-01 03:15:00,43.3,41.5,29.61,North,-999,-999.0,-999.0,93,-99.99,,,-99.99,open2300-1.11,2013-04-01 07:15:00,
2013-04-01 03:21:00,42.8,40.9,29.60,North,-999,-999.0,-999.0,93,-99.99,,,-99.99,open2300-1.11,2013-04-01 07:21:00,
2013-04-01 03:27:00,42.4,40.5,29.60,North,-999,-999.0,-999.0,93,-99.99,,,-99.99,open2300-1.11,2013-04-01 07:27:00,
2013-04-01 03:33:00,41.9,40.0,29.60,North,-999,-999.0,-999.0,93,-99.99,,,-99.99,open2300-1.11,2013-04-01 07:33:00,
2013-04-01 03:38:00,41.7,39.8,29.60,North,-999,-999.0,-999.0,93,-99.99,,,-99.99,open2300-1.11,2013-04-01 07:38:00,
2013-04-01 03:43:00,41.4,39.5,29.61,North,-999,-999.0,-999.0,93,-99.99,,,-99.99,open2300-1.11,2013-04-01 07:43:00,
2013-04-01 03:49:00,41.2,39.3,29.60,North,-999,-999.0,-999.0,93,-99.99,,,-99.99,open2300-1.11,2013-04-01 07:49:00,
2013-04-01 03:54:00,41.2,39.3,29.61,North,-999,-999.0,-999.0,93,-99.99,,,-99.99,open2300-1.11,2013-04-01 07:54:00,
2013-04-01 04:00:00,41.2,39.3,29.61,North,-999,-999.0,-999.0,93,-99.99,,,-99.99,open2300-1.11,2013-04-01 08:00:00,
2013-04-01 04:06:00,41.5,39.7,29.61,North,-999,-999.0,-999.0,93,-99.99,,,-99.99,open2300-1.11,2013-04-01 08:06:00,
2013-04-01 04:12:00,41.5,39.9,29.61,North,-999,-999.0,-999.0,94,-99.99,,,-99.99,open2300-1.11,2013-04-01 08:12:00,
2013-04-01 04:18:00,41.5,39.9,29.61,North,-999,-999.0,-999.0,94,-99.99,,,-99.99,open2300-1.11,2013-04-01 08:18:00,
2013-04-01 04:24:00,41.5,39.9,29.61,North,-999,-999.0,-999.0,94,-99.99,,,-99.99,open2300-1.11,2013-04-01 08:24:00,
2013-04-01 04:30:00,41.5,39.9,29.61,North,-999,-999.0,-999.0,94,-99.99,,,-99.99,open2300-1.11,2013-04-01 08:30:00,
2013-04-01 04:35:00,41.5,39.9,29.61,North,-999,-999.0,-999.0,94,-99.99,,,-99.99,open2300-1.11,2013-04-01 08:35:00,
2013-04-01 04:40:00,41.4,39.7,29.61,North,-999,-999.0,-999.0,94,-99.99,,,-99.99,open2300-1.11,2013-04-01 08:40:00,
2013-04-01 04:46:00,41.2,39.6,29.61,North,-999,-999.0,-999.0,94,-99.99,,,-99.99,open2300-1.11,2013-04-01 08:46:00,
2013-04-01 04:52:00,40.8,39.2,29.61,North,-999,-999.0,-999.0,94,-99.99,,,-99.99,open2300-1.11,2013-04-01 08:52:00,
2013-04-01 04:58:00,40.8,39.2,29.62,North,-999,-999.0,-999.0,94,-99.99,,,-99.99,open2300-1.11,2013-04-01 08:58:00,
2013-04-01 05:03:00,41.0,39.4,29.61,North,-999,-999.0,-999.0,94,-99.99,,,-99.99,open2300-1.11,2013-04-01 09:03:00,
2013-04-01 05:09:00,41.4,39.7,29.62,North,-999,-999.0,-999.0,94,-99.99,,,-99.99,open2300-1.11,2013-04-01 09:09:00,
2013-04-01 05:15:00,41.5,39.9,29.62,North,-999,-999.0,-999.0,94,-99.99,,,-99.99,open2300-1.11,2013-04-01 09:15:00,
2013-04-01 05:21:00,41.5,39.9,29.62,North,-999,-999.0,-999.0,94,-99.99,,,-99.99,open2300-1.11,2013-04-01 09:21:00,
2013-04-01 05:26:00,41.7,40.1,29.62,North,-999,-999.0,-999.0,94,-99.99,,,-99.99,open2300-1.11,2013-04-01 09:26:00,
2013-04-01 05:32:00,41.5,39.9,29.62,North,-999,-999.0,-999.0,94,-99.99,,,-99.99,open2300-1.11,2013-04-01 09:32:00,
2013-04-01 05:38:00,41.5,40.2,29.62,North,-999,-999.0,-999.0,95,-99.99,,,-99.99,open2300-1.11,2013-04-01 09:38:00,
2013-04-01 05:43:00,41.4,39.7,29.62,North,-999,-999.0,-999.0,94,-99.99,,,-99.99,open2300-1.11,2013-04-01 09:43:00,
2013-04-01 05:49:00,41.4,39.7,29.62,North,-999,-999.0,-999.0,94,-99.99,,,-99.99,open2300-1.11,2013-04-01 09:49:00,
2013-04-01 05:54:00,41.4,39.7,29.62,North,-999,-999.0,-999.0,94,-99.99,,,-99.99,open2300-1.11,2013-04-01 09:54:00,
2013-04-01 06:00:00,41.2,39.6,29.62,North,-999,-999.0,-999.0,94,-99.99,,,-99.99,open2300-1.11,2013-04-01 10:00:00,
2013-04-01 06:06:00,41.0,39.4,29.62,North,-999,-999.0,-999.0,94,-99.99,,,-99.99,open2300-1.11,2013-04-01 10:06:00,
2013-04-01 06:12:00,40.8,39.2,29.62,North,-999,-999.0,-999.0,94,-99.99,,,-99.99,open2300-1.11,2013-04-01 10:12:00,
2013-04-01 06:18:00,40.8,39.2,29.62,North,-999,-999.0,-999.0,94,-99.99,,,-99.99,open2300-1.11,2013-04-01 10:18:00,
2013-04-01 06:23:00,40.6,39.0,29.62,North,-999,-999.0,-999.0,94,-99.99,,,-99.99,open2300-1.11,2013-04-01 10:23:00,
2013-04-01 06:29:00,40.3,38.7,29.62,North,-999,-999.0,-999.0,94,-99.99,,,-99.99,open2300-1.11,2013-04-01 10:29:00,
2013-04-01 06:35:00,40.1,38.5,29.61,North,-999,-999.0,-999.0,94,-99.99,,,-99.99,open2300-1.11,2013-04-01 10:35:00,
2013-04-01 06:41:00,39.7,38.1,29.61,North,-999,-999.0,-999.0,94,-99.99,,,-99.99,open2300-1.11,2013-04-01 10:41:00,
2013-04-01 06:47:00,39.7,38.1,29.61,North,-999,-999.0,-999.0,94,-99.99,,,-99.99,open2300-1.11,2013-04-01 10:47:00,
2013-04-01 06:53:00,39.9,38.3,29.61,North,-999,-999.0,-999.0,94,-99.99,,,-99.99,open2300-1.11,2013-04-01 10:53:00,
2013-04-01 06:59:00,40.3,38.7,29.61,North,-999,-999.0,-999.0,94,-99.99,,,-99.99,open2300-1.11,2013-04-01 10:59:00,
2013-04-01 07:05:00,41.2,39.6,29.61,North,-999,-999.0,-999.0,94,-99.99,,,-99.99,open2300-1.11,2013-04-01 11:05:00,
2013-04-01 07:10:00,41.5,40.2,29.61,North,-999,-999.0,-999.0,95,-99.99,,,-99.99,open2300-1.11,2013-04-01 11:10:00,
2013-04-01 07:16:00,41.9,40.5,29.62,North,-999,-999.0,-999.0,95,-99.99,,,-99.99,open2300-1.11,2013-04-01 11:16:00,
2013-04-01 07:21:00,42.4,41.1,29.62,North,-999,-999.0,-999.0,95,-99.99,,,-99.99,open2300-1.11,2013-04-01 11:21:00,
2013-04-01 07:29:00,42.4,41.1,29.62,North,-999,-999.0,-999.0,95,-99.99,,,-99.99,open2300-1.11,2013-04-01 11:29:00,
2013-04-01 07:35:00,42.6,41.3,29.62,North,-999,-999.0,-999.0,95,-99.99,,,-99.99,open2300-1.11,2013-04-01 11:35:00,
2013-04-01 07:40:00,43.0,41.6,29.62,North,-999,-999.0,-999.0,95,-99.99,,,-99.99,open2300-1.11,2013-04-01 11:40:00,
2013-04-01 07:46:00,43.5,42.2,29.62,North,-999,-999.0,-999.0,95,-99.99,,,-99.99,open2300-1.11,2013-04-01 11:46:00,
2013-04-01 07:51:00,43.5,42.2,29.62,North,-999,-999.0,-999.0,95,-99.99,,,-99.99,open2300-1.11,2013-04-01 11:51:00,
2013-04-01 07:57:00,43.5,42.2,29.62,North,-999,-999.0,-999.0,95,-99.99,,,-99.99,open2300-1.11,2013-04-01 11:57:00,
2013-04-01 08:03:00,43.9,42.5,29.62,North,-999,-999.0,-999.0,95,-99.99,,,-99.99,open2300-1.11,2013-04-01 12:03:00,
2013-04-01 08:08:00,44.2,42.9,29.62,North,-999,-999.0,-999.0,95,-99.99,,,-99.99,open2300-1.11,2013-04-01 12:08:00,
2013-04-01 08:14:00,44.4,43.1,29.62,North,-999,-999.0,-999.0,95,-99.99,,,-99.99,open2300-1.11,2013-04-01 12:14:00,
2013-04-01 08:20:00,44.4,43.1,29.61,North,-999,-999.0,-999.0,95,-99.99,,,-99.99,open2300-1.11,2013-04-01 12:20:00,
2013-04-01 08:25:00,44.8,43.4,29.62,North,-999,-999.0,-999.0,95,-99.99,,,-99.99,open2300-1.11,2013-04-01 12:25:00,
2013-04-01 08:31:00,45.3,44.0,29.62,North,-999,-999.0,-999.0,95,-99.99,,,-99.99,open2300-1.11,2013-04-01 12:31:00,
2013-04-01 08:37:00,46.0,44.7,29.61,North,-999,-999.0,-999.0,95,-99.99,,,-99.99,open2300-1.11,2013-04-01 12:37:00,
2013-04-01 08:43:00,46.2,44.9,29.61,North,-999,-999.0,-999.0,95,-99.99,,,-99.99,open2300-1.11,2013-04-01 12:43:00,
2013-04-01 08:49:00,46.8,45.4,29.61,North,-999,-999.0,-999.0,95,-99.99,,,-99.99,open2300-1.11,2013-04-01 12:49:00,
2013-04-01 08:54:00,47.8,46.5,29.61,North,-999,-999.0,-999.0,95,-99.99,,,-99.99,open2300-1.11,2013-04-01 12:54:00,
2013-04-01 09:00:00,48.7,47.3,29.61,North,-999,-999.0,-999.0,95,-99.99,,,-99.99,open2300-1.11,2013-04-01 13:00:00,
2013-04-01 09:05:00,51.1,49.6,29.61,North,-999,-999.0,-999.0,95,-99.99,,,-99.99,open2300-1.11,2013-04-01 13:05:00,
2013-04-01 09:11:00,53.8,50.9,29.61,North,-999,-999.0,-999.0,90,-99.99,,,-99.99,open2300-1.11,2013-04-01 13:11:00,
2013-04-01 09:17:00,55.8,51.3,29.61,North,-999,-999.0,-999.0,85,-99.99,,,-99.99,open2300-1.11,2013-04-01 13:17:00,
2013-04-01 09:23:00,57.0,51.5,29.60,North,-999,-999.0,-999.0,82,-99.99,,,-99.99,open2300-1.11,2013-04-01 13:23:00,
2013-04-01 09:28:00,59.2,52.3,29.60,North,-999,-999.0,-999.0,78,-99.99,,,-99.99,open2300-1.11,2013-04-01 13:28:00,
2013-04-01 09:34:00,61.2,53.2,29.60,North,-999,-999.0,-999.0,75,-99.99,,,-99.99,open2300-1.11,2013-04-01 13:34:00,
2013-04-01 09:39:00,62.2,52.0,29.60,North,-999,-999.0,-999.0,69,-99.99,,,-99.99,open2300-1.11,2013-04-01 13:39:00,
2013-04-01 09:44:00,61.5,51.3,29.60,North,-999,-999.0,-999.0,69,-99.99,,,-99.99,open2300-1.11,2013-04-01 13:44:00,
2013-04-01 09:50:00,61.0,50.4,29.60,North,-999,-999.0,-999.0,68,-99.99,,,-99.99,open2300-1.11,2013-04-01 13:50:00,
2013-04-01 09:56:00,61.2,51.0,29.60,North,-999,-999.0,-999.0,69,-99.99,,,-99.99,open2300-1.11,2013-04-01 13:56:00,
2013-04-01 10:04:00,62.6,51.5,29.60,North,-999,-999.0,-999.0,67,-99.99,,,-99.99,open2300-1.11,2013-04-01 14:04:00,
2013-04-01 10:10:00,61.9,50.0,29.60,North,-999,-999.0,-999.0,65,-99.99,,,-99.99,open2300-1.11,2013-04-01 14:10:00,
2013-04-01 10:15:00,61.0,49.5,29.60,North,-999,-999.0,-999.0,65,-99.99,,,-99.99,open2300-1.11,2013-04-01 14:15:00,
2013-04-01 10:20:00,60.1,48.7,29.60,North,-999,-999.0,-999.0,66,-99.99,,,-99.99,open2300-1.11,2013-04-01 14:20:00,
2013-04-01 10:26:00,60.3,49.7,29.60,North,-999,-999.0,-999.0,68,-99.99,,,-99.99,open2300-1.11,2013-04-01 14:26:00,
2013-04-01 10:32:00,61.5,50.5,29.59,North,-999,-999.0,-999.0,67,-99.99,,,-99.99,open2300-1.11,2013-04-01 14:32:00,
2013-04-01 10:38:00,63.9,51.0,29.59,North,-999,-999.0,-999.0,63,-99.99,,,-99.99,open2300-1.11,2013-04-01 14:38:00,
2013-04-01 10:44:00,62.2,48.2,29.59,North,-999,-999.0,-999.0,60,-99.99,,,-99.99,open2300-1.11,2013-04-01 14:44:00,
2013-04-01 10:50:00,60.4,47.0,29.59,North,-999,-999.0,-999.0,61,-99.99,,,-99.99,open2300-1.11,2013-04-01 14:50:00,
2013-04-01 10:55:00,60.4,47.8,29.58,North,-999,-999.0,-999.0,63,-99.99,,,-99.99,open2300-1.11,2013-04-01 14:55:00,
2013-04-01 11:01:00,60.6,48.4,29.58,North,-999,-999.0,-999.0,64,-99.99,,,-99.99,open2300-1.11,2013-04-01 15:01:00,
2013-04-01 11:06:00,62.2,49.1,29.58,North,-999,-999.0,-999.0,62,-99.99,,,-99.99,open2300-1.11,2013-04-01 15:06:00,
2013-04-01 11:14:00,63.0,48.4,29.58,North,-999,-999.0,-999.0,59,-99.99,,,-99.99,open2300-1.11,2013-04-01 15:14:00,
2013-04-01 11:20:00,61.3,46.9,29.57,North,-999,-999.0,-999.0,59,-99.99,,,-99.99,open2300-1.11,2013-04-01 15:20:00,
2013-04-01 11:26:00,60.1,46.2,29.57,North,-999,-999.0,-999.0,60,-99.99,,,-99.99,open2300-1.11,2013-04-01 15:26:00,
2013-04-01 11:32:00,59.7,46.3,29.57,North,-999,-999.0,-999.0,61,-99.99,,,-99.99,open2300-1.11,2013-04-01 15:32:00,
2013-04-01 11:37:00,59.7,46.7,29.58,North,-999,-999.0,-999.0,62,-99.99,,,-99.99,open2300-1.11,2013-04-01 15:37:00,
2013-04-01 11:42:00,59.5,46.1,29.58,North,-999,-999.0,-999.0,61,-99.99,,,-99.99,open2300-1.11,2013-04-01 15:42:00,
2013-04-01 11:50:00,59.7,45.9,29.58,North,-999,-999.0,-999.0,60,-99.99,,,-99.99,open2300-1.11,2013-04-01 15:50:00,
2013-04-01 11:55:00,60.1,45.7,29.57,North,-999,-999.0,-999.0,59,-99.99,,,-99.99,open2300-1.11,2013-04-01 15:55:00,
2013-04-01 12:01:00,60.6,45.8,29.57,North,-999,-999.0,-999.0,58,-99.99,,,-99.99,open2300-1.11,2013-04-01 16:01:00,
2013-04-01 12:06:00,61.3,45.0,29.57,North,-999,-999.0,-999.0,55,-99.99,,,-99.99,open2300-1.11,2013-04-01 16:06:00,
2013-04-01 12:12:00,61.7,45.3,29.57,North,-999,-999.0,-999.0,55,-99.99,,,-99.99,open2300-1.11,2013-04-01 16:12:00,
2013-04-01 12:18:00,61.5,45.6,29.57,North,-999,-999.0,-999.0,56,-99.99,,,-99.99,open2300-1.11,2013-04-01 16:18:00,
2013-04-01 12:23:00,61.0,44.2,29.57,North,-999,-999.0,-999.0,54,-99.99,,,-99.99,open2300-1.11,2013-04-01 16:23:00,
2013-04-01 12:29:00,61.0,44.7,29.56,North,-999,-999.0,-999.0,55,-99.99,,,-99.99,open2300-1.11,2013-04-01 16:29:00,
2013-04-01 12:34:00,61.3,44.5,29.55,North,-999,-999.0,-999.0,54,-99.99,,,-99.99,open2300-1.11,2013-04-01 16:34:00,
2013-04-01 12:40:00,61.3,44.5,29.55,North,-999,-999.0,-999.0,54,-99.99,,,-99.99,open2300-1.11,2013-04-01 16:40:00,
2013-04-01 12:46:00,61.3,44.0,29.55,North,-999,-999.0,-999.0,53,-99.99,,,-99.99,open2300-1.11,2013-04-01 16:46:00,
2013-04-01 12:51:00,63.0,44.5,29.55,North,-999,-999.0,-999.0,51,-99.99,,,-99.99,open2300-1.11,2013-04-01 16:51:00,
2013-04-01 12:57:00,63.3,43.8,29.55,North,-999,-999.0,-999.0,49,-99.99,,,-99.99,open2300-1.11,2013-04-01 16:57:00,
2013-04-01 13:02:00,63.7,43.5,29.55,North,-999,-999.0,-999.0,48,-99.99,,,-99.99,open2300-1.11,2013-04-01 17:02:00,
2013-04-01 13:07:00,64.2,44.6,29.55,North,-999,-999.0,-999.0,49,-99.99,,,-99.99,open2300-1.11,2013-04-01 17:07:00,
2013-04-01 13:13:00,64.2,44.0,29.54,North,-999,-999.0,-999.0,48,-99.99,,,-99.99,open2300-1.11,2013-04-01 17:13:00,
2013-04-01 13:19:00,64.9,44.1,29.54,North,-999,-999.0,-999.0,47,-99.99,,,-99.99,open2300-1.11,2013-04-01 17:19:00,
2013-04-01 13:24:00,65.8,44.4,29.54,North,-999,-999.0,-999.0,46,-99.99,,,-99.99,open2300-1.11,2013-04-01 17:24:00,
2013-04-01 13:30:00,65.5,43.5,29.54,North,-999,-999.0,-999.0,45,-99.99,,,-99.99,open2300-1.11,2013-04-01 17:30:00,
2013-04-01 13:35:00,65.3,43.9,29.55,North,-999,-999.0,-999.0,46,-99.99,,,-99.99,open2300-1.11,2013-04-01 17:35:00,
2013-04-01 13:41:00,64.6,43.8,29.55,North,-999,-999.0,-999.0,47,-99.99,,,-99.99,open2300-1.11,2013-04-01 17:41:00,
2013-04-01 13:46:00,64.2,44.0,29.55,North,-999,-999.0,-999.0,48,-99.99,,,-99.99,open2300-1.11,2013-04-01 17:46:00,
2013-04-01 13:52:00,63.7,43.5,29.55,North,-999,-999.0,-999.0,48,-99.99,,,-99.99,open2300-1.11,2013-04-01 17:52:00,
2013-04-01 13:58:00,63.3,42.6,29.55,North,-999,-999.0,-999.0,47,-99.99,,,-99.99,open2300-1.11,2013-04-01 17:58:00,
2013-04-01 14:04:00,63.1,43.0,29.55,North,-999,-999.0,-999.0,48,-99.99,,,-99.99,open2300-1.11,2013-04-01 18:04:00,
2013-04-01 14:09:00,63.7,43.5,29.55,North,-999,-999.0,-999.0,48,-99.99,,,-99.99,open2300-1.11,2013-04-01 18:09:00,
2013-04-01 14:15:00,63.3,41.5,29.55,North,-999,-999.0,-999.0,45,-99.99,,,-99.99,open2300-1.11,2013-04-01 18:15:00,
2013-04-01 14:21:00,63.5,42.2,29.55,North,-999,-999.0,-999.0,46,-99.99,,,-99.99,open2300-1.11,2013-04-01 18:21:00,
2013-04-01 14:26:00,64.2,43.4,29.55,North,-999,-999.0,-999.0,47,-99.99,,,-99.99,open2300-1.11,2013-04-01 18:26:00,
2013-04-01 14:32:00,63.7,42.4,29.54,North,-999,-999.0,-999.0,46,-99.99,,,-99.99,open2300-1.11,2013-04-01 18:32:00,
2013-04-01 14:38:00,63.1,42.5,29.55,North,-999,-999.0,-999.0,47,-99.99,,,-99.99,open2300-1.11,2013-04-01 18:38:00,
2013-04-01 14:43:00,62.2,41.7,29.56,North,-999,-999.0,-999.0,47,-99.99,,,-99.99,open2300-1.11,2013-04-01 18:43:00,
2013-04-01 14:49:00,61.2,41.2,29.56,North,-999,-999.0,-999.0,48,-99.99,,,-99.99,open2300-1.11,2013-04-01 18:49:00,
2013-04-01 14:54:00,60.1,40.9,29.57,North,-999,-999.0,-999.0,49,-99.99,,,-99.99,open2300-1.11,2013-04-01 18:54:00,
2013-04-01 15:00:00,59.5,40.4,29.57,North,-999,-999.0,-999.0,49,-99.99,,,-99.99,open2300-1.11,2013-04-01 19:00:00,
2013-04-01 15:05:00,59.2,40.0,29.57,North,-999,-999.0,-999.0,49,-99.99,,,-99.99,open2300-1.11,2013-04-01 19:05:00,
2013-04-01 15:11:00,58.8,40.3,29.57,North,-999,-999.0,-999.0,50,-99.99,,,-99.99,open2300-1.11,2013-04-01 19:11:00,
2013-04-01 15:16:00,58.8,40.3,29.57,North,-999,-999.0,-999.0,50,-99.99,,,-99.99,open2300-1.11,2013-04-01 19:16:00,
2013-04-01 15:22:00,58.8,40.8,29.57,North,-999,-999.0,-999.0,51,-99.99,,,-99.99,open2300-1.11,2013-04-01 19:22:00,
2013-04-01 15:27:00,58.3,40.3,29.57,North,-999,-999.0,-999.0,51,-99.99,,,-99.99,open2300-1.11,2013-04-01 19:27:00,
2013-04-01 15:33:00,57.9,40.0,29.57,North,-999,-999.0,-999.0,51,-99.99,,,-99.99,open2300-1.11,2013-04-01 19:33:00,
2013-04-01 15:39:00,57.7,40.3,29.58,North,-999,-999.0,-999.0,52,-99.99,,,-99.99,open2300-1.11,2013-04-01 19:39:00,
2013-04-01 15:44:00,57.4,39.5,29.58,North,-999,-999.0,-999.0,51,-99.99,,,-99.99,open2300-1.11,2013-04-01 19:44:00,
2013-04-01 15:49:00,56.3,38.4,29.59,North,-999,-999.0,-999.0,51,-99.99,,,-99.99,open2300-1.11,2013-04-01 19:49:00,
2013-04-01 15:55:00,55.8,37.4,29.60,North,-999,-999.0,-999.0,50,-99.99,,,-99.99,open2300-1.11,2013-04-01 19:55:00,
2013-04-01 16:00:00,54.7,36.9,29.61,North,-999,-999.0,-999.0,51,-99.99,,,-99.99,open2300-1.11,2013-04-01 20:00:00,
2013-04-01 16:06:00,53.8,37.5,29.61,North,-999,-999.0,-999.0,54,-99.99,,,-99.99,open2300-1.11,2013-04-01 20:06:00,
2013-04-01 16:11:00,53.8,37.9,29.61,North,-999,-999.0,-999.0,55,-99.99,,,-99.99,open2300-1.11,2013-04-01 20:11:00,
2013-04-01 16:17:00,53.2,37.9,29.61,North,-999,-999.0,-999.0,56,-99.99,,,-99.99,open2300-1.11,2013-04-01 20:17:00,
2013-04-01 16:22:00,52.7,37.8,29.61,North,-999,-999.0,-999.0,57,-99.99,,,-99.99,open2300-1.11,2013-04-01 20:22:00,
2013-04-01 16:28:00,51.6,36.3,29.61,North,-999,-999.0,-999.0,56,-99.99,,,-99.99,open2300-1.11,2013-04-01 20:28:00,
2013-04-01 16:34:00,50.7,36.4,29.62,North,-999,-999.0,-999.0,58,-99.99,,,-99.99,open2300-1.11,2013-04-01 20:34:00,
2013-04-01 16:39:00,50.5,36.7,29.62,North,-999,-999.0,-999.0,59,-99.99,,,-99.99,open2300-1.11,2013-04-01 20:39:00,
2013-04-01 16:45:00,50.4,36.5,29.62,North,-999,-999.0,-999.0,59,-99.99,,,-99.99,open2300-1.11,2013-04-01 20:45:00,
2013-04-01 16:52:00,50.2,36.4,29.62,North,-999,-999.0,-999.0,59,-99.99,,,-99.99,open2300-1.11,2013-04-01 20:52:00,
2013-04-01 16:58:00,50.0,36.7,29.62,North,-999,-999.0,-999.0,60,-99.99,,,-99.99,open2300-1.11,2013-04-01 20:58:00,
2013-04-01 17:05:00,50.2,36.8,29.62,North,-999,-999.0,-999.0,60,-99.99,,,-99.99,open2300-1.11,2013-04-01 21:05:00,
2013-04-01 17:11:00,50.2,36.4,29.62,North,-999,-999.0,-999.0,59,-99.99,,,-99.99,open2300-1.11,2013-04-01 21:11:00,
2013-04-01 17:17:00,50.2,35.9,29.62,North,-999,-999.0,-999.0,58,-99.99,,,-99.99,open2300-1.11,2013-04-01 21:17:00,
2013-04-01 17:22:00,50.4,35.7,29.62,North,-999,-999.0,-999.0,57,-99.99,,,-99.99,open2300-1.11,2013-04-01 21:22:00,
2013-04-01 17:29:00,50.7,34.6,29.62,North,-999,-999.0,-999.0,54,-99.99,,,-99.99,open2300-1.11,2013-04-01 21:29:00,
2013-04-01 17:34:00,51.1,33.6,29.62,North,-999,-999.0,-999.0,51,-99.99,,,-99.99,open2300-1.11,2013-04-01 21:34:00,
2013-04-01 17:40:00,51.4,33.5,29.62,North,-999,-999.0,-999.0,50,-99.99,,,-99.99,open2300-1.11,2013-04-01 21:40:00,
2013-04-01 17:46:00,52.0,33.4,29.62,North,-999,-999.0,-999.0,49,-99.99,,,-99.99,open2300-1.11,2013-04-01 21:46:00,
2013-04-01 17:51:00,53.1,32.1,29.62,North,-999,-999.0,-999.0,45,-99.99,,,-99.99,open2300-1.11,2013-04-01 21:51:00,
2013-04-01 17:57:00,53.4,31.4,29.62,North,-999,-999.0,-999.0,43,-99.99,,,-99.99,open2300-1.11,2013-04-01 21:57:00,
2013-04-01 18:04:00,53.4,30.8,29.62,North,-999,-999.0,-999.0,42,-99.99,,,-99.99,open2300-1.11,2013-04-01 22:04:00,
2013-04-01 18:10:00,53.2,30.6,29.63,North,-999,-999.0,-999.0,42,-99.99,,,-99.99,open2300-1.11,2013-04-01 22:10:00,
2013-04-01 18:15:00,52.9,29.8,29.63,North,-999,-999.0,-999.0,41,-99.99,,,-99.99,open2300-1.11,2013-04-01 22:15:00,
2013-04-01 18:21:00,52.5,28.2,29.64,North,-999,-999.0,-999.0,39,-99.99,,,-99.99,open2300-1.11,2013-04-01 22:21:00,
2013-04-01 18:27:00,52.3,28.7,29.64,North,-999,-999.0,-999.0,40,-99.99,,,-99.99,open2300-1.11,2013-04-01 22:27:00,
2013-04-01 18:33:00,52.0,27.7,29.64,North,-999,-999.0,-999.0,39,-99.99,,,-99.99,open2300-1.11,2013-04-01 22:33:00,
2013-04-01 18:38:00,51.1,26.9,29.64,North,-999,-999.0,-999.0,39,-99.99,,,-99.99,open2300-1.11,2013-04-01 22:38:00,
2013-04-01 18:44:00,50.4,26.2,29.65,North,-999,-999.0,-999.0,39,-99.99,,,-99.99,open2300-1.11,2013-04-01 22:44:00,
2013-04-01 18:50:00,49.8,25.8,29.65,North,-999,-999.0,-999.0,39,-99.99,,,-99.99,open2300-1.11,2013-04-01 22:50:00,
2013-04-01 18:56:00,49.1,25.1,29.66,North,-999,-999.0,-999.0,39,-99.99,,,-99.99,open2300-1.11,2013-04-01 22:56:00,
2013-04-01 19:04:00,48.4,24.5,29.66,North,-999,-999.0,-999.0,39,-99.99,,,-99.99,open2300-1.11,2013-04-01 23:04:00,
2013-04-01 19:09:00,48.0,24.1,29.66,North,-999,-999.0,-999.0,39,-99.99,,,-99.99,open2300-1.11,2013-04-01 23:09:00,
2013-04-01 19:15:00,47.5,23.7,29.67,North,-999,-999.0,-999.0,39,-99.99,,,-99.99,open2300-1.11,2013-04-01 23:15:00,
2013-04-01 19:22:00,47.1,22.7,29.67,North,-999,-999.0,-999.0,38,-99.99,,,-99.99,open2300-1.11,2013-04-01 23:22:00,
2013-04-01 19:27:00,46.8,21.7,29.68,North,-999,-999.0,-999.0,37,-99.99,,,-99.99,open2300-1.11,2013-04-01 23:27:00,
2013-04-01 19:33:00,46.6,21.5,29.67,North,-999,-999.0,-999.0,37,-99.99,,,-99.99,open2300-1.11,2013-04-01 23:33:00,
2013-04-01 19:38:00,46.0,21.7,29.68,North,-999,-999.0,-999.0,38,-99.99,,,-99.99,open2300-1.11,2013-04-01 23:38:00,
2013-04-01 19:45:00,45.7,21.4,29.68,North,-999,-999.0,-999.0,38,-99.99,,,-99.99,open2300-1.11,2013-04-01 23:45:00,
2013-04-01 19:50:00,45.5,21.2,29.69,North,-999,-999.0,-999.0,38,-99.99,,,-99.99,open2300-1.11,2013-04-01 23:50:00,
2013-04-01 19:55:00,45.1,20.9,29.69,North,-999,-999.0,-999.0,38,-99.99,,,-99.99,open2300-1.11,2013-04-01 23:55:00,
2013-04-01 20:02:00,44.8,21.2,29.69,North,-999,-999.0,-999.0,39,-99.99,,,-99.99,open2300-1.11,2013-04-02 00:02:00,
2013-04-01 20:08:00,44.4,20.9,29.70,North,-999,-999.0,-999.0,39,-99.99,,,-99.99,open2300-1.11,2013-04-02 00:08:00,
2013-04-01 20:13:00,44.4,20.9,29.71,North,-999,-999.0,-999.0,39,-99.99,,,-99.99,open2300-1.11,2013-04-02 00:13:00,
2013-04-01 20:19:00,44.1,20.6,29.71,North,-999,-999.0,-999.0,39,-99.99,,,-99.99,open2300-1.11,2013-04-02 00:19:00,
2013-04-01 20:24:00,43.9,19.8,29.71,North,-999,-999.0,-999.0,38,-99.99,,,-99.99,open2300-1.11,2013-04-02 00:24:00,
2013-04-01 20:31:00,43.9,19.8,29.72,North,-999,-999.0,-999.0,38,-99.99,,,-99.99,open2300-1.11,2013-04-02 00:31:00,
2013-04-01 20:37:00,43.5,19.4,29.73,North,-999,-999.0,-999.0,38,-99.99,,,-99.99,open2300-1.11,2013-04-02 00:37:00,
2013-04-01 20:42:00,43.5,19.4,29.73,North,-999,-999.0,-999.0,38,-99.99,,,-99.99,open2300-1.11,2013-04-02 00:42:00,
2013-04-01 20:48:00,43.3,19.9,29.74,North,-999,-999.0,-999.0,39,-99.99,,,-99.99,open2300-1.11,2013-04-02 00:48:00,
2013-04-01 20:54:00,43.0,19.6,29.74,North,-999,-999.0,-999.0,39,-99.99,,,-99.99,open2300-1.11,2013-04-02 00:54:00,
2013-04-01 21:00:00,42.6,19.3,29.75,North,-999,-999.0,-999.0,39,-99.99,,,-99.99,open2300-1.11,2013-04-02 01:00:00,
2013-04-01 21:05:00,42.4,19.8,29.75,North,-999,-999.0,-999.0,40,-99.99,,,-99.99,open2300-1.11,2013-04-02 01:05:00,
2013-04-01 21:10:00,41.9,19.3,29.75,North,-999,-999.0,-999.0,40,-99.99,,,-99.99,open2300-1.11,2013-04-02 01:10:00,
2013-04-01 21:16:00,41.5,19.0,29.75,North,-999,-999.0,-999.0,40,-99.99,,,-99.99,open2300-1.11,2013-04-02 01:16:00,
2013-04-01 21:22:00,41.2,18.7,29.76,North,-999,-999.0,-999.0,40,-99.99,,,-99.99,open2300-1.11,2013-04-02 01:22:00,
2013-04-01 21:28:00,40.8,18.3,29.77,North,-999,-999.0,-999.0,40,-99.99,,,-99.99,open2300-1.11,2013-04-02 01:28:00,
2013-04-01 21:33:00,40.5,18.0,29.77,North,-999,-999.0,-999.0,40,-99.99,,,-99.99,open2300-1.11,2013-04-02 01:33:00,
2013-04-01 21:39:00,40.1,18.2,29.77,North,-999,-999.0,-999.0,41,-99.99,,,-99.99,open2300-1.11,2013-04-02 01:39:00,
2013-04-01 21:45:00,39.9,17.5,29.78,North,-999,-999.0,-999.0,40,-99.99,,,-99.99,open2300-1.11,2013-04-02 01:45:00,
2013-04-01 21:51:00,39.6,16.6,29.78,North,-999,-999.0,-999.0,39,-99.99,,,-99.99,open2300-1.11,2013-04-02 01:51:00,
2013-04-01 21:56:00,39.4,17.0,29.79,North,-999,-999.0,-999.0,40,-99.99,,,-99.99,open2300-1.11,2013-04-02 01:56:00,
2013-04-01 22:02:00,39.0,16.1,29.79,North,-999,-999.0,-999.0,39,-99.99,,,-99.99,open2300-1.11,2013-04-02 02:02:00,
2013-04-01 22:08:00,38.8,15.9,29.79,North,-999,-999.0,-999.0,39,-99.99,,,-99.99,open2300-1.11,2013-04-02 02:08:00,
2013-04-01 22:13:00,38.5,15.6,29.79,North,-999,-999.0,-999.0,39,-99.99,,,-99.99,open2300-1.11,2013-04-02 02:13:00,
2013-04-01 22:19:00,38.1,15.9,29.79,North,-999,-999.0,-999.0,40,-99.99,,,-99.99,open2300-1.11,2013-04-02 02:19:00,
2013-04-01 22:24:00,37.9,15.1,29.80,North,-999,-999.0,-999.0,39,-99.99,,,-99.99,open2300-1.11,2013-04-02 02:24:00,
2013-04-01 22:30:00,37.8,15.6,29.80,North,-999,-999.0,-999.0,40,-99.99,,,-99.99,open2300-1.11,2013-04-02 02:30:00,
2013-04-01 22:38:00,37.4,14.6,29.80,North,-999,-999.0,-999.0,39,-99.99,,,-99.99,open2300-1.11,2013-04-02 02:38:00,
2013-04-01 22:44:00,37.2,14.4,29.80,North,-999,-999.0,-999.0,39,-99.99,,,-99.99,open2300-1.11,2013-04-02 02:44:00,
2013-04-01 22:50:00,37.2,14.4,29.81,North,-999,-999.0,-999.0,39,-99.99,,,-99.99,open2300-1.11,2013-04-02 02:50:00,
2013-04-01 22:56:00,37.2,14.4,29.81,North,-999,-999.0,-999.0,39,-99.99,,,-99.99,open2300-1.11,2013-04-02 02:56:00,
2013-04-01 23:02:00,37.0,14.3,29.82,North,-999,-999.0,-999.0,39,-99.99,,,-99.99,open2300-1.11,2013-04-02 03:02:00,
2013-04-01 23:07:00,36.9,14.1,29.82,North,-999,-999.0,-999.0,39,-99.99,,,-99.99,open2300-1.11,2013-04-02 03:07:00,
2013-04-01 23:12:00,36.5,13.8,29.82,North,-999,-999.0,-999.0,39,-99.99,,,-99.99,open2300-1.11,2013-04-02 03:12:00,
2013-04-01 23:18:00,36.3,13.6,29.82,North,-999,-999.0,-999.0,39,-99.99,,,-99.99,open2300-1.11,2013-04-02 03:18:00,
2013-04-01 23:23:00,36.3,14.3,29.82,North,-999,-999.0,-999.0,40,-99.99,,,-99.99,open2300-1.11,2013-04-02 03:23:00,
2013-04-01 23:29:00,36.1,14.1,29.82,North,-999,-999.0,-999.0,40,-99.99,,,-99.99,open2300-1.11,2013-04-02 03:29:00,
2013-04-01 23:34:00,35.8,14.3,29.83,North,-999,-999.0,-999.0,41,-99.99,,,-99.99,open2300-1.11,2013-04-02 03:34:00,
2013-04-01 23:40:00,35.4,14.0,29.83,North,-999,-999.0,-999.0,41,-99.99,,,-99.99,open2300-1.11,2013-04-02 03:40:00,
2013-04-01 23:45:00,35.2,13.8,29.83,North,-999,-999.0,-999.0,41,-99.99,,,-99.99,open2300-1.11,2013-04-02 03:45:00,
2013-04-01 23:51:00,34.9,14.0,29.83,North,-999,-999.0,-999.0,42,-99.99,,,-99.99,open2300-1.11,2013-04-02 03:51:00,
2013-04-01 23:57:00,34.5,13.7,29.83,North,-999,-999.0,-999.0,42,-99.99,,,-99.99,open2300-1.11,2013-04-02 03:57:00,